Regional Weather Roundup
Issued by NWS

Home | Current Version | Previous Version | Text Only | Print | Product List | Glossary On
Versions: 1 2 3 4 5 6 7 8 9 10 11 12 13 14 15 16 17 18 19 20 21 22 23 24 25 26 27 28 29 30 31 32 33 34 35 36 37 38 39 40 41 42 43 44 45 46 47 48 49 50
000
ASUS44 KLIX 202210
RWRLA
LOUISIANA WEATHER ROUNDUP
NATIONAL WEATHER SERVICE NEW ORLEANS LA
400 PM CST SAT DEC 20 2014

NOTE: "FAIR" INDICATES FEW OR NO CLOUDS BELOW 12,000 FEET WITH NO
      SIGNIFICANT WEATHER AND/OR OBSTRUCTIONS TO VISIBILITY.
      SKY/WX - SKY CONDITION AND SIGNIFICANT WEATHER.
      TMP - AIR TEMPERATURE.    DP   - DEWPOINT TEMPERATURE.
      RH  - RELATIVE HUMIDITY.  PRES - PRESSURE.
      HX  - HEAT INDEX.         WCI  - WIND CHILL INDEX.

*  THESE STATIONS ARE NOT NWS OR FAA STATIONS AND ARE NOT UNDER
   NWS QUALITY CONTROL.

LAZ040-048-061>063-065-066-069-202300-
SOUTHEAST LOUISIANA

CITY           SKY/WX    TMP DP  RH WIND       PRES   REMARKS
N.O. AUDUBON     N/A     53  50  89 MISG        N/A
N.O. INTL ARPT CLOUDY    52  48  86 N14       30.12R
N.O. LAKEFRONT CLOUDY    55  48  77 N16       30.12R
N.O. DOWNTOWN* CLOUDY    54  45  71 N9        30.11S
SLIDELL        CLOUDY    53  47  79 N9        30.11S
BATON ROUGE    CLOUDY    51  46  83 N7        30.13S
BOOTHVILLE     CLOUDY    55  52  89 N8        30.09R
BELLE CHASSE   CLOUDY    55  49  80 N7        30.10R
BOGALUSA*        N/A     53  46  78 NE9       30.15R
GALLIANO*      CLOUDY    56  51  82 MISG      30.10R
NEW ROADS*     FAIR      53  46  78 NE3       30.14S
GONZALES*      CLOUDY    51  50  99 N5        30.12S
HAMMOND*       NOT AVBL
HOUMA*         CLOUDY    52  50  93 N9        30.10R
PORT FOURCHON* CLOUDY    55  52  88 NE13G21   30.11R

$$

LAZ041-044-053-054-202300-
SOUTHWEST LOUISIANA

CITY           SKY/WX    TMP DP  RH WIND       PRES   REMARKS
LAKE CHARLES   MOSUNNY   59  47  64 NE12      30.12S
LAFAYETTE      CLOUDY    50  47  89 NE9       30.14R
PATTERSON      CLOUDY    52  48  87 NE12      30.11F
SALT POINT       N/A     55  49  80 VRB5      30.10S
NEW IBERIA     CLOUDY    52  48  86 NE13      30.13S
CHENAULT AIRPK MOSUNNY   59  45  58 NE8       30.13R

$$

LAZ027-028-202300-
CENTRAL LOUISIANA

CITY           SKY/WX    TMP DP  RH WIND       PRES   REMARKS
FORT POLK      SUNNY     53  44  71 N10       30.14S
ALEXANDRIA INT SUNNY     56  44  64 N6        30.14S
ALEXANDRIA     SUNNY     56  43  61 NE5       30.15S

$$

LAZ001-002-202300-
NORTHWEST LOUISIANA

CITY           SKY/WX    TMP DP  RH WIND       PRES   REMARKS
SHREVEPORT     CLOUDY    46  42  86 N5        30.19F
BARKSDALE AFB  NOT AVBL
DTN SHREVEPORT CLOUDY    46  41  82 N3        30.20F

$$

LAZ014-016-202300-
NORTHEAST LOUISIANA

CITY           SKY/WX    TMP DP  RH WIND       PRES   REMARKS
MONROE         SUNNY     56  42  59 NE7       30.19R
TALLULAH       SUNNY     58  40  51 NE7       30.16S

$$




USA.gov is the U.S. government's official web portal to all federal, state and local government web resources and services.